EJA238 KMIA-KCHS

Flight info

Callsign EJA238
Flight time N/A
Altitude 41000
Route ALTNN2 DUCEN Q87 VIYAP DCT SAV BAGGY3
Aircraft CL60/M-VGDW/C

Departure

Time 2026-05-05 04:03
Airport Miami International Airport (KMIA)

Arrival

Time N/A
Airport Charleston International Airport (KCHS)
Time Latitude Longitude Altitude Speed Heading
2026-05-05 03:47 25.80624 -80.29196 12 ft 0 kts 360°
2026-05-05 03:58 25.80629 -80.29196 12 ft 2 kts
2026-05-05 03:58 25.80650 -80.29189 12 ft 0 kts 23°
2026-05-05 03:58 25.80654 -80.29187 12 ft 3 kts 29°
2026-05-05 03:58 25.80663 -80.29127 12 ft 10 kts 112°
2026-05-05 03:59 25.80633 -80.29076 12 ft 8 kts
2026-05-05 03:59 25.80614 -80.29129 12 ft 10 kts 204°
2026-05-05 03:59 25.80597 -80.29134 12 ft 0 kts 186°
2026-05-05 04:00 25.80577 -80.29134 12 ft 7 kts 181°
2026-05-05 04:00 25.80507 -80.29135 13 ft 12 kts 180°
2026-05-05 04:00 25.80441 -80.29201 13 ft 15 kts 253°
2026-05-05 04:01 25.80432 -80.29339 12 ft 21 kts 268°
2026-05-05 04:01 25.80429 -80.29520 12 ft 25 kts 269°
2026-05-05 04:01 25.80424 -80.29730 12 ft 28 kts 264°
2026-05-05 04:01 25.80409 -80.29954 11 ft 30 kts 268°
2026-05-05 04:02 25.80395 -80.30128 11 ft 16 kts 243°
2026-05-05 04:02 25.80301 -80.30142 11 ft 16 kts 178°
2026-05-05 04:02 25.80178 -80.30136 11 ft 19 kts 178°
2026-05-05 04:02 25.80071 -80.30112 11 ft 11 kts 110°
2026-05-05 04:03 25.80078 -80.29959 11 ft 41 kts 87°
2026-05-05 04:03 25.80106 -80.29274 14 ft 139 kts 86°
2026-05-05 04:03 25.80160 -80.28005 552 ft 180 kts 85°
2026-05-05 04:03 25.80239 -80.26587 1485 ft 203 kts 85°
2026-05-05 04:04 25.80304 -80.24854 2155 ft 246 kts 87°
2026-05-05 04:04 25.80371 -80.22887 3162 ft 269 kts 89°
2026-05-05 04:04 25.80422 -80.20873 4641 ft 268 kts 85°
2026-05-05 04:04 25.80839 -80.18897 5882 ft 274 kts 65°
2026-05-05 04:05 25.81923 -80.17188 7110 ft 279 kts 43°
2026-05-05 04:05 25.83576 -80.16101 8284 ft 285 kts 17°
2026-05-05 04:05 25.85538 -80.15840 9394 ft 292 kts
2026-05-05 04:05 25.87555 -80.15778 10460 ft 297 kts
2026-05-05 04:06 25.89639 -80.15842 11530 ft 302 kts 349°
2026-05-05 04:06 25.91633 -80.16465 12530 ft 306 kts 342°
2026-05-05 04:06 25.93670 -80.17188 13536 ft 310 kts 342°
2026-05-05 04:06 25.95739 -80.17915 14493 ft 315 kts 341°
2026-05-05 04:07 25.97822 -80.18645 15414 ft 320 kts 341°
2026-05-05 04:07 26.00015 -80.19179 16287 ft 328 kts 352°
2026-05-05 04:07 26.02328 -80.19422 16993 ft 339 kts 353°
2026-05-05 04:07 26.04700 -80.19661 17724 ft 347 kts 352°
2026-05-05 04:08 26.07124 -80.19908 18495 ft 352 kts 352°
2026-05-05 04:08 26.09553 -80.20155 19261 ft 356 kts 352°
2026-05-05 04:08 26.12037 -80.20409 19976 ft 361 kts 352°
2026-05-05 04:08 26.14558 -80.20667 20669 ft 365 kts 352°
2026-05-05 04:09 26.17103 -80.20928 21343 ft 368 kts 353°
2026-05-05 04:09 26.19663 -80.21190 21987 ft 372 kts 353°
2026-05-05 04:09 26.22259 -80.21426 22598 ft 375 kts 354°
2026-05-05 04:09 26.24880 -80.21658 23192 ft 379 kts 354°
2026-05-05 04:10 26.27518 -80.21893 23802 ft 383 kts 354°
2026-05-05 04:10 26.30183 -80.22130 24411 ft 386 kts 354°
2026-05-05 04:10 26.32866 -80.22369 25027 ft 389 kts 354°
2026-05-05 04:10 26.35546 -80.22607 25623 ft 392 kts 354°
2026-05-05 04:11 26.38286 -80.22858 26218 ft 395 kts 354°
2026-05-05 04:11 26.41048 -80.23138 26789 ft 398 kts 354°
2026-05-05 04:11 26.43804 -80.23422 27329 ft 401 kts 354°
2026-05-05 04:11 26.46596 -80.23708 27881 ft 404 kts 354°
2026-05-05 04:12 26.49400 -80.23997 28458 ft 405 kts 354°
2026-05-05 04:12 26.52196 -80.24284 29009 ft 408 kts 354°
2026-05-05 04:12 26.55072 -80.24581 29414 ft 414 kts 353°
2026-05-05 04:12 26.57919 -80.24974 29797 ft 419 kts 351°
2026-05-05 04:13 26.60837 -80.25461 30181 ft 425 kts 351°
2026-05-05 04:13 26.63790 -80.25953 30567 ft 429 kts 351°
2026-05-05 04:13 26.66746 -80.26446 30905 ft 433 kts 351°
2026-05-05 04:13 26.69742 -80.26954 31280 ft 435 kts 349°
2026-05-05 04:14 26.72648 -80.27876 31660 ft 435 kts 339°
2026-05-05 04:14 26.75492 -80.29076 32030 ft 437 kts 339°
2026-05-05 04:14 26.78323 -80.30264 32413 ft 438 kts 339°
2026-05-05 04:14 26.81218 -80.31479 32795 ft 439 kts 339°
2026-05-05 04:15 26.84065 -80.32673 33169 ft 440 kts 339°
2026-05-05 04:15 26.86948 -80.33883 33547 ft 440 kts 339°
2026-05-05 04:15 26.89805 -80.35082 33918 ft 441 kts 339°
2026-05-05 04:15 26.92666 -80.36283 34293 ft 440 kts 339°
2026-05-05 04:16 26.95544 -80.37472 34672 ft 440 kts 339°
2026-05-05 04:16 26.98424 -80.38634 35052 ft 439 kts 339°
2026-05-05 04:16 27.01296 -80.39792 35430 ft 438 kts 339°
2026-05-05 04:16 27.04149 -80.40943 35808 ft 436 kts 339°
2026-05-05 04:17 27.06996 -80.42092 36189 ft 435 kts 339°
2026-05-05 04:17 27.09846 -80.43269 36571 ft 433 kts 338°
2026-05-05 04:17 27.12640 -80.44498 36949 ft 430 kts 338°
2026-05-05 04:17 27.15430 -80.45729 37337 ft 428 kts 338°
2026-05-05 04:18 27.18212 -80.46957 37709 ft 425 kts 338°
2026-05-05 04:18 27.20974 -80.48177 38088 ft 422 kts 338°
2026-05-05 04:18 27.23688 -80.49377 38462 ft 419 kts 338°
2026-05-05 04:18 27.26408 -80.50580 38862 ft 416 kts 338°
2026-05-05 04:19 27.29118 -80.51778 39251 ft 414 kts 338°
2026-05-05 04:19 27.31814 -80.52972 39631 ft 412 kts 338°
2026-05-05 04:19 27.34452 -80.54140 40001 ft 409 kts 338°
2026-05-05 04:19 27.37124 -80.55296 40380 ft 406 kts 339°
2026-05-05 04:20 27.39816 -80.56370 40621 ft 407 kts 340°
2026-05-05 04:20 27.42502 -80.57435 40746 ft 411 kts 340°
2026-05-05 04:20 27.45240 -80.58522 40863 ft 413 kts 340°
2026-05-05 04:20 27.47960 -80.59603 41001 ft 415 kts 340°
2026-05-05 04:21 27.50690 -80.60688 41123 ft 418 kts 340°
2026-05-05 04:21 27.53455 -80.61788 41174 ft 422 kts 340°
2026-05-05 04:21 27.59076 -80.64027 41139 ft 430 kts 340°
2026-05-05 04:22 27.64780 -80.66301 41105 ft 437 kts 340°
2026-05-05 04:22 27.70593 -80.68621 41096 ft 442 kts 340°
2026-05-05 04:23 27.76419 -80.70949 41096 ft 446 kts 340°
2026-05-05 04:23 27.82289 -80.73297 41066 ft 451 kts 340°
2026-05-05 04:24 27.85291 -80.74500 40862 ft 458 kts 340°
2026-05-05 04:24 27.88328 -80.75716 40673 ft 464 kts 340°
2026-05-05 04:24 27.91390 -80.76944 40449 ft 469 kts 340°
2026-05-05 04:25 27.97587 -80.79430 40067 ft 479 kts 340°
2026-05-05 04:25 28.03894 -80.81965 40083 ft 479 kts 340°
2026-05-05 04:26 28.10170 -80.84489 40092 ft 480 kts 340°
2026-05-05 04:26 28.16454 -80.87020 40103 ft 481 kts 340°
2026-05-05 04:27 28.22776 -80.89570 40095 ft 485 kts 340°
2026-05-05 04:27 28.29166 -80.92150 40092 ft 486 kts 340°
2026-05-05 04:28 28.35537 -80.94726 40096 ft 486 kts 340°
2026-05-05 04:28 28.41926 -80.97312 40093 ft 485 kts 340°
2026-05-05 04:29 28.48283 -80.99889 40100 ft 485 kts 340°
2026-05-05 04:29 28.51477 -81.01186 39817 ft 491 kts 340°
2026-05-05 04:29 28.54686 -81.02489 39199 ft 490 kts 340°
2026-05-05 04:29 28.57924 -81.03804 38745 ft 491 kts 340°
2026-05-05 04:30 28.61097 -81.05093 38152 ft 490 kts 340°
2026-05-05 04:30 28.64339 -81.06413 37546 ft 487 kts 340°
2026-05-05 04:30 28.67509 -81.07703 36743 ft 483 kts 339°
2026-05-05 04:30 28.70651 -81.08982 35997 ft 481 kts 339°
2026-05-05 04:31 28.73830 -81.10278 35291 ft 483 kts 339°
2026-05-05 04:31 28.77003 -81.11572 34634 ft 485 kts 339°
2026-05-05 04:31 28.80165 -81.12863 34003 ft 487 kts 339°
2026-05-05 04:31 28.83387 -81.14180 33369 ft 489 kts 339°
2026-05-05 04:32 28.86591 -81.15489 32745 ft 485 kts 339°
2026-05-05 04:32 28.89715 -81.16766 32141 ft 481 kts 339°
2026-05-05 04:32 28.92867 -81.18057 31536 ft 478 kts 339°
2026-05-05 04:32 28.96003 -81.19340 30927 ft 474 kts 339°
2026-05-05 04:33 28.99071 -81.20597 30314 ft 470 kts 339°
2026-05-05 04:33 29.02143 -81.21856 29695 ft 466 kts 339°
2026-05-05 04:33 29.05203 -81.23111 29076 ft 461 kts 339°
2026-05-05 04:33 29.08165 -81.24327 28495 ft 457 kts 339°
2026-05-05 04:34 29.11187 -81.25568 27872 ft 453 kts 339°
2026-05-05 04:34 29.14134 -81.26780 27276 ft 449 kts 340°
2026-05-05 04:34 29.17048 -81.27978 26682 ft 444 kts 340°
2026-05-05 04:34 29.19944 -81.29170 26092 ft 440 kts 340°
2026-05-05 04:35 29.22814 -81.30351 25510 ft 436 kts 340°
2026-05-05 04:35 29.25639 -81.31516 24936 ft 432 kts 340°
2026-05-05 04:35 29.28494 -81.32585 24366 ft 429 kts 344°
2026-05-05 04:35 29.31370 -81.33444 23808 ft 425 kts 345°
2026-05-05 04:36 29.34214 -81.34284 23264 ft 421 kts 345°
2026-05-05 04:36 29.37036 -81.35121 22709 ft 418 kts 345°
2026-05-05 04:36 29.39836 -81.35951 22154 ft 414 kts 345°
2026-05-05 04:36 29.42606 -81.36773 21602 ft 410 kts 345°
2026-05-05 04:37 29.45384 -81.37598 21046 ft 406 kts 345°
2026-05-05 04:37 29.48119 -81.38410 20512 ft 403 kts 345°
2026-05-05 04:37 29.50799 -81.39207 19973 ft 400 kts 345°
2026-05-05 04:37 29.53496 -81.40009 19447 ft 396 kts 346°
2026-05-05 04:38 29.56140 -81.40795 18926 ft 393 kts 346°
2026-05-05 04:38 29.58801 -81.41587 18398 ft 390 kts 346°
2026-05-05 04:38 29.61417 -81.42366 17885 ft 387 kts 346°
2026-05-05 04:38 29.63993 -81.43134 17378 ft 384 kts 346°
2026-05-05 04:39 29.66583 -81.43905 16877 ft 380 kts 346°
2026-05-05 04:39 29.69145 -81.44669 16356 ft 378 kts 346°
2026-05-05 04:39 29.71669 -81.45422 15868 ft 372 kts 346°
2026-05-05 04:39 29.74122 -81.46153 15324 ft 366 kts 346°
2026-05-05 04:40 29.76568 -81.46884 14757 ft 353 kts 346°
2026-05-05 04:40 29.78874 -81.47574 14403 ft 338 kts 346°
2026-05-05 04:40 29.81134 -81.48249 13918 ft 334 kts 346°
2026-05-05 04:40 29.83378 -81.48920 13496 ft 328 kts 346°
2026-05-05 04:41 29.85568 -81.49575 13047 ft 323 kts 345°
2026-05-05 04:41 29.87742 -81.50225 12621 ft 319 kts 345°
2026-05-05 04:41 29.89858 -81.50858 12212 ft 314 kts 345°
2026-05-05 04:41 29.91964 -81.51489 11794 ft 311 kts 345°
2026-05-05 04:42 29.93975 -81.52330 11373 ft 305 kts 330°
2026-05-05 04:42 29.95765 -81.53626 10989 ft 300 kts 326°
2026-05-05 04:42 29.97500 -81.54902 10808 ft 289 kts 326°
2026-05-05 04:42 29.99194 -81.56142 10662 ft 292 kts 326°
2026-05-05 04:43 30.00923 -81.57410 10510 ft 293 kts 326°
2026-05-05 04:43 30.02635 -81.58662 10364 ft 293 kts 326°
2026-05-05 04:43 30.04375 -81.59934 10212 ft 293 kts 326°
2026-05-05 04:43 30.06083 -81.61183 10063 ft 292 kts 326°
2026-05-05 04:44 30.07794 -81.62433 9919 ft 291 kts 327°
2026-05-05 04:44 30.09508 -81.63686 9729 ft 292 kts 327°
2026-05-05 04:44 30.11251 -81.64960 9341 ft 292 kts 327°
2026-05-05 04:44 30.12953 -81.66203 8966 ft 288 kts 326°
2026-05-05 04:45 30.14653 -81.67446 8571 ft 285 kts 326°
2026-05-05 04:45 30.16322 -81.68666 8198 ft 282 kts 326°
2026-05-05 04:45 30.17980 -81.69878 7824 ft 280 kts 326°
2026-05-05 04:45 30.19640 -81.71091 7452 ft 279 kts 326°
2026-05-05 04:46 30.21285 -81.72295 7083 ft 277 kts 327°
2026-05-05 04:46 30.22913 -81.73485 6716 ft 276 kts 327°
2026-05-05 04:46 30.24541 -81.74677 6353 ft 275 kts 327°
2026-05-05 04:46 30.26133 -81.75841 5996 ft 273 kts 326°
2026-05-05 04:47 30.27760 -81.77032 5624 ft 272 kts 326°
2026-05-05 04:47 30.29343 -81.78191 5273 ft 270 kts 326°
2026-05-05 04:47 30.30930 -81.79353 4925 ft 269 kts 326°
2026-05-05 04:47 30.32519 -81.80518 4563 ft 268 kts 326°
2026-05-05 04:48 30.34041 -81.81751 4225 ft 265 kts 314°
2026-05-05 04:48 30.35240 -81.83360 3868 ft 260 kts 307°
2026-05-05 04:48 30.36359 -81.84982 3516 ft 255 kts 307°
2026-05-05 04:48 30.37459 -81.86575 3185 ft 250 kts 307°
2026-05-05 04:49 30.38545 -81.88137 2850 ft 246 kts 307°
2026-05-05 04:49 30.39606 -81.89668 2514 ft 243 kts 307°
2026-05-05 04:49 30.40718 -81.91126 2160 ft 240 kts 321°
2026-05-05 04:49 30.42204 -81.91809 2042 ft 223 kts 355°
2026-05-05 04:50 30.43596 -81.91385 2060 ft 197 kts 39°
2026-05-05 04:50 30.44212 -81.90129 2054 ft 169 kts 84°
2026-05-05 04:50 30.44273 -81.88844 2095 ft 159 kts 93°
2026-05-05 04:50 30.44322 -81.87560 2051 ft 157 kts 87°
2026-05-05 04:51 30.44534 -81.86303 2026 ft 158 kts 77°
2026-05-05 04:51 30.44907 -81.85120 2002 ft 151 kts 70°
2026-05-05 04:51 30.45286 -81.84058 2037 ft 136 kts 71°
2026-05-05 04:51 30.45623 -81.83003 2079 ft 140 kts 73°
2026-05-05 04:52 30.45918 -81.82059 2004 ft 138 kts 74°
2026-05-05 04:52 30.46046 -81.81646 1972 ft 138 kts 74°
2026-05-05 04:52 30.46370 -81.80596 1857 ft 140 kts 74°
2026-05-05 04:52 30.46692 -81.79546 1683 ft 136 kts 74°
2026-05-05 04:53 30.47011 -81.78507 1498 ft 137 kts 74°
2026-05-05 04:53 30.47328 -81.77473 1347 ft 136 kts 74°
2026-05-05 04:53 30.47648 -81.76428 1146 ft 135 kts 74°
2026-05-05 04:53 30.47946 -81.75409 977 ft 135 kts 74°
2026-05-05 04:54 30.48253 -81.74384 821 ft 133 kts 72°
2026-05-05 04:54 30.48574 -81.73370 648 ft 132 kts 72°
2026-05-05 04:54 30.48891 -81.72382 476 ft 131 kts 71°
2026-05-05 04:54 30.49201 -81.71376 297 ft 132 kts 71°
2026-05-05 04:55 30.49507 -81.70381 133 ft 130 kts 72°
2026-05-05 04:55 30.49798 -81.69422 29 ft 118 kts 72°
2026-05-05 04:55 30.50035 -81.68642 26 ft 78 kts 70°
2026-05-05 04:55 30.50132 -81.68323 26 ft 24 kts 71°
2026-05-05 04:56 30.50165 -81.68122 26 ft 26 kts 96°
2026-05-05 04:56 30.50062 -81.67982 26 ft 24 kts 162°
2026-05-05 04:56 30.49907 -81.67925 26 ft 18 kts 160°
2026-05-05 04:56 30.49855 -81.67974 26 ft 14 kts 281°
2026-05-05 04:57 30.49847 -81.68077 26 ft 12 kts 213°
2026-05-05 04:57 30.49763 -81.68116 25 ft 10 kts 247°
2026-05-05 04:57 30.49761 -81.68127 25 ft 0 kts 258°